Terminal Aerodrome Forecast
Issued by NWS

Home | Current Version | Previous Version | Text Only | Print | Product List | Glossary On
Versions: 1 2 3 4 5 6 7 8 9 10 11 12 13 14 15 16 17 18 19 20 21 22 23 24 25 26 27 28 29 30 31 32 33 34 35 36 37 38 39 40 41 42 43 44 45 46 47 48 49 50
000
FTUS41 KCTP 132049 AAB
TAFBFD
TAF AMD
KBFD 132049Z 1321/1418 26010KT P6SM VCSH SCT025 BKN050
      TEMPO 1321/1322 3SM SHRA OVC025
     FM132200 27007KT P6SM SCT050 BKN100
     FM140300 24003KT 3SM BR BKN010 OVC020
     FM140700 00000KT 1SM BR OVC004
     FM141300 23007KT 6SM HZ BKN020 BKN200=

USA.gov is the U.S. government's official web portal to all federal, state and local government web resources and services.